Regional Weather Roundup
Issued by NWS Kansas City/Pleasant Hill, MO

Home | Current Version | Previous Version | Text Only | Print | Product List | Glossary On
Versions: 1 2 3 4 5 6 7 8 9 10 11 12 13 14 15 16 17 18 19 20 21 22 23 24 25 26 27 28 29 30 31 32 33 34 35 36 37 38 39 40 41 42 43 44 45 46 47 48 49 50
000
ASUS43 KEAX 191204
RWREAX

WEATHER ROUNDUP FOR EASTERN KANSAS AND NORTHWEST MISSOURI
NATIONAL WEATHER SERVICE KANSAS CITY/PLEASANT HILL MO
700 AM CDT FRI SEP 19 2014

KSZ040-057-103>105-MOZ028-029-037-043-191300-
...KANSAS CITY METROPOLITAN AREA...

CITY           SKY/WX    TMP DP  RH WIND       PRES   REMARKS
K.C. INTL      CLOUDY    62  61  96 SE9       30.02R
6HR MIN TEMP:  59; 6HR MAX TEMP:  62;

K.C. DOWNTOWN  CLOUDY    64  61  90 S6        30.02R
6HR MIN TEMP:  62; 6HR MAX TEMP:  64;

LEES SUMMIT    CLOUDY    62  60  93 S6        30.04R FOG
6HR MIN TEMP:  61; 6HR MAX TEMP:  62;

OLATHE - IXD   CLOUDY    62  61  96 S8        30.02R
6HR MIN TEMP:  60; 6HR MAX TEMP:  62;

OLATHE - OJC   CLOUDY    61  61 100 SE7       30.01S FOG
LAWRENCE       CLOUDY    62  60  93 SE9       30.01S FOG

$$

MOZ001>008-011>017-020>025-030>033-038>040-044>046-053-054-191300-
...NORTHERN AND CENTRAL MISSOURI...

CITY           SKY/WX    TMP DP  RH WIND       PRES   REMARKS
ST. JOSEPH     CLOUDY    62  61  96 SE7       30.01S FOG
6HR MIN TEMP:  59; 6HR MAX TEMP:  62;

MOSBY          FOG       61  61 100 SE5       30.03S VSB 1/2
WHITEMAN AFB   FOG       59  59 100 SE5       30.04S VSB 1/2
6HR MIN TEMP:  57; 6HR MAX TEMP:  60;

CLINTON        FOG       59  59 100 E3        30.04S VSB 1
SEDALIA        FOG       61  60  97 SE7       30.06R VSB 1/2
6HR MIN TEMP:  59; 6HR MAX TEMP:  61;

WARSAW         NOT AVBL
MARSHALL       FOG       61  61 100 SE3       30.07R VSB 1/4
CHILLICOTHE      N/A     59  58  96 SE5       30.05F
6HR MIN TEMP:  56; 6HR MAX TEMP:  61;

MOBERLY        CLEAR     54  50  87 CALM      30.08R
KIRKSVILLE     PTCLDY    53  50  89 SE5       30.08R
6HR MIN TEMP:  50; 6HR MAX TEMP:  57;


$$

MOZ041-047>049-056>058-063>065-088>090-097-191300-
...EASTERN AND SOUTHERN MISSOURI...

CITY           SKY/WX    TMP DP  RH WIND       PRES   REMARKS
ST. LOUIS INTL PTCLDY    56  52  86 E5        30.09S
6HR MIN TEMP:  56; 6HR MAX TEMP:  62;

SPIRIT OF STL  CLEAR     50  49  96 CALM      30.08R
COLUMBIA       CLEAR     56  54  93 SE5       30.06
JEFFERSON CITY MOCLDY    54  53  97 CALM      30.06S FOG
MEXICO         CLEAR    N/A N/A N/A E3        30.07F HAZE
ROLLA          CLEAR     55  54  96 E9        30.06R FOG
LEBANON        FOG       55  54  94 SE3       30.07R VSB<1/4
OSAGE BEACH    PTCLDY    55  52  88 CALM      30.06S
SPRINGFIELD    CLEAR     61  59  93 SE8       30.03S
BRANSON        CLOUDY    63  63 100 CALM      30.06R FOG
NEVADA         CLOUDY    59  59 100 E3        30.03S FOG
JOPLIN         CLEAR     63  61  93 SE5       30.01S
WEST PLAINS    CLEAR     54  53  97 NE3       30.07R FOG

$$

IAZ060-094-KSZ022-034>040-054-083-096-NEZ052-066-093-191300-
...KANSAS...SOUTHEAST NEBRASKA AND IOWA...

CITY           SKY/WX    TMP DP  RH WIND       PRES   REMARKS
TOPEKA         CLOUDY    64  63  96 SE7       30.00R
6HR MIN TEMP:  62; 6HR MAX TEMP:  64;

MANHATTAN      CLEAR     62  61  96 CALM      29.97R
EMPORIA        FOG       63  63 100 S13       29.99S VSB 1/2
CHANUTE        MOCLDY    62  62 100 SE7       30.01R
WICHITA        PTCLDY    65  62  90 S6        29.97R
OMAHA          CLOUDY    63  60  90 S16       29.94S FOG
LINCOLN        CLEAR     63  61  93 S10       29.93R
FALLS CITY     CLOUDY    63  62  97 SE9       29.98S FOG
LAMONI         CLOUDY    56  55  97 S8        30.03R
DES MOINES     PTCLDY    56  53  90 S7        30.02R

$$



USA.gov is the U.S. government's official web portal to all federal, state and local government web resources and services.